22 de maio de 2022

Tempo Código Clima Temp. Visão Nuvens Vento METAR/SPECI
14:00
V
13 °C 24 km 9.800 ft 320°   320° 10 kt METAR CYYZ 221800Z 32010KT 15SM FEW010 BKN098 13/09 A3010 RMK CF1AC7 CF TR SLP195
13:00
V
12 °C 24 km 6.500 ft 340°   340° 15 kt METAR CYYZ 221700Z 34015KT 15SM FEW011 OVC065 12/10 A3006 RMK SF1SC7 SLP184
12:20
V
11 °C 16 km 5.200 ft 340°   340° 14 21 kt METAR CYYZ 221620Z 34014G21KT 10SM -RA SCT012 OVC052 11/10 A3006 RMK SF2SC6 SLP183
12:00
V
11 °C 24 km 4.100 ft 340°   340° 13 kt METAR CYYZ 221600Z 34013KT 15SM FEW009 OVC041 11/10 A3005 RMK CF2SC6 SLP178
11:00
M
10 °C 16 km 2.200 ft 350°   350° 16 22 kt METAR CYYZ 221500Z 35016G22KT 10SM SCT009 OVC022 10/10 A3002 RMK SF3SC5 SLP168
10:33
M
10 °C 10 km 1.600 ft 340°   340° 16 26 kt METAR CYYZ 221433Z 34016G26KT 6SM -RA BR SCT006 OVC016 10/10 A3000 RMK SF3SC5 SLP164
10:12
I
12 °C 3,2 km 900 ft 340°   340° 19 24 kt METAR CYYZ 221412Z 34019G24KT 2SM -RA BR FEW006 OVC009 12/12 A3000 RMK SF2SC6 PRESRR SLP161
10:00
M
13 °C 6,4 km 1.400 ft 340°   340° 19 kt METAR CYYZ 221400Z CCA 34019KT 4SM -RA BR OVC014 13/13 A2998 RMK SC8 PRESRR SLP155
09:43
M
16 °C 10 km 1.400 ft 330°   330° 7 kt METAR CYYZ 221343Z 33007KT 6SM BR FEW005 OVC014 16/15 A2996 RMK SF1SC7 SLP147 DENSITY ALT 800FT
09:00
I
14 °C 6,4 km 600 ft Var   000° 0 kt METAR CYYZ 221300Z 00000KT 4SM BR BKN006 OVC010 14/14 A2994 RMK SC5SC3 SLP140 DENSITY ALT 600FT
08:28
M
14 °C 6,4 km 1.000 ft Var   Var 2 kt METAR CYYZ 221228Z VRB02KT 4SM BR SCT004 OVC010 14/14 A2994 RMK SC3SC5 SLP143 DENSITY ALT 600FT
08:00
M
14 °C 10 km 1.200 ft 150°   150° 4 kt METAR CYYZ 221200Z 15004KT 6SM BR OVC012 14/14 A2995 RMK SC8 SLP146 DENSITY ALT 600FT
07:10
M
16 °C 16 km 1.500 ft 130°   130° 3 kt METAR CYYZ 221110Z 13003KT 090V170 10SM OVC015 16/12 A2995 RMK SC8 SLP145 DENSITY ALT 800FT
07:00
M
16 °C 16 km 1.800 ft 100°   100° 5 kt METAR CYYZ 221100Z 10005KT 090V210 10SM -DZ OVC018 16/12 A2995 RMK ST8 SLP144 DENSITY ALT 800FT
06:00
M
16 °C 24 km 2.000 ft 030°   030° 2 kt METAR CYYZ 221000Z 03002KT 15SM OVC020 16/12 A2994 RMK SC8 SLP141 DENSITY ALT 800FT
05:00
M
16 °C 24 km 2.200 ft 150°   150° 3 kt METAR CYYZ 220900Z 15003KT 15SM OVC022 16/13 A2997 RMK SC8 SLP149 DENSITY ALT 800FT
04:00
M
16 °C 24 km 2.500 ft Var   000° 0 kt METAR CYYZ 220800Z 00000KT 15SM OVC025 16/11 A2997 RMK SC8 SLP150 DENSITY ALT 800FT
03:00
M
16 °C 24 km 2.400 ft 350°   350° 5 kt METAR CYYZ 220700Z 35005KT 15SM BKN024 16/14 A2998 RMK SC7 SLP152 DENSITY ALT 800FT
02:00
M
18 °C 24 km 2.300 ft 030°   030° 3 kt METAR CYYZ 220600Z 03003KT 15SM OVC023 18/12 A2998 RMK SC8 SLP153 DENSITY ALT 1000FT
01:00
M
17 °C 24 km 2.300 ft 340°   340° 2 kt METAR CYYZ 220500Z 34002KT 15SM OVC023 17/15 A3000 RMK SC8 SLP160 DENSITY ALT 900FT
00:00
V
16 °C 24 km 20.000 ft 090°   090° 5 kt METAR CYYZ 220400Z 09005KT 15SM FEW100 SCT120 OVC200 16/15 A3000 RMK AC2AC2CI4 SLP160 DENSITY ALT 800FT

21 de maio de 2022

Tempo Código Clima Temp. Visão Nuvens Vento METAR/SPECI
23:00
V
19 °C 24 km 3.000 ft 060°   060° 3 kt METAR CYYZ 220300Z 06003KT 15SM BKN030 BKN060 19/12 A3004 RMK SC5SC2 INTMT -RA SLP172 DENSITY ALT 1100FT
22:00
V
19 °C 24 km 10.000 ft 350°   350° 5 kt METAR CYYZ 220200Z 35005KT 15SM -RA SCT032 OVC100 19/15 A3002 RMK SC4AC4 SLP166 DENSITY ALT 1100FT
21:35
V
19 °C 24 km 11.000 ft 050°   050° 4 kt METAR CYYZ 220135Z 05004KT 15SM -RA BKN110 OVC160 19/15 A3000 RMK AC5AC3 SLP160 DENSITY ALT 1100FT
21:00
V
19 °C 24 km 25.000 ft 020°   020° 6 kt METAR CYYZ 220100Z 02006KT 15SM SCT110 OVC250 19/15 A2999 RMK AC4CI4 SLP155 DENSITY ALT 1100FT
20:00
V
19 °C 24 km 25.000 ft 020°   020° 8 kt METAR CYYZ 220000Z 02008KT 15SM SCT110 OVC250 19/16 A2997 RMK AC4CI4 SLP149 DENSITY ALT 1200FT
19:00
V
21 °C 24 km 25.000 ft 350°   350° 11 kt METAR CYYZ 212300Z 35011KT 15SM FEW040 SCT120 BKN250 21/17 A2995 RMK SC1AC2CI3 CB TOP DIST SE SLP142 DENSITY ALT 1400FT
18:18
V
23 °C 24 km 25.000 ft 330°   330° 15 kt METAR CYYZ 212218Z 33015KT 280V340 15SM FEW040 SCT120 BKN250 23/16 A2994 RMK SC1AC2CI3 WSHFT 2159 CB TOP DIST SE PRESFR SLP139 DENSITY ALT 1700FT
18:00
V
24 °C 24 km 12.000 ft 280°   280° 16 kt METAR CYYZ 212200Z 28016KT 15SM FEW042 BKN120 BKN260 24/16 A2996 RMK CU2AC3CI1 SLP146 DENSITY ALT 1700FT
17:00
V
25 °C 24 km 4.000 ft 290°   290° 15 22 kt METAR CYYZ 212100Z 29015G22KT 15SM BKN040 BKN260 25/17 A2995 RMK CU5CC1 SLP142 DENSITY ALT 1800FT
16:00
V
26 °C 24 km 3.900 ft 280°   280° 21 29 kt METAR CYYZ 212000Z 28021G29KT 15SM BKN039 BKN240 26/18 A2995 RMK CU5CI1 SLP141 DENSITY ALT 2000FT
15:00
V
22 °C 24 km 26.000 ft 210°   210° 12 kt METAR CYYZ 211900Z 21012KT 15SM FEW040 SCT160 BKN260 22/19 A2990 RMK CU1AC3CI3 CU TR SLP125 DENSITY ALT 1600FT
14:00
V
21 °C 24 km 12.000 ft 240°   240° 4 15 kt METAR CYYZ 211800Z 24004G15KT 210V350 15SM FEW040CB BKN120 BKN240 21/17 A2984 RMK CB2AC4CI1 SLP104 DENSITY ALT 1600FT
13:29
V
18 °C 24 km 11.000 ft 350°   350° 20 25 kt METAR CYYZ 211729Z 35020G25KT 15SM -SHRA SCT050CB BKN110 18/18 A2984 RMK CB3AC4 CB NE-E MOVG E PRESFR SLP105 DENSITY ALT 1200FT
13:09
V
17 °C 16 km 11.000 ft 300°   300° 23 39 kt METAR CYYZ 211709Z 30023G39KT 10SM R24L/5500VP6000FT/U -TSRA SCT040CB BKN110 17/17 A2993 RMK CB4AC3 CB N-SE MOVG E FREQ LTGIC PRESFR SLP136 DENSITY ALT 1000FT
13:00
I
17 °C 2,0 km 1.500 ft 280°   280° 32 65 kt METAR CYYZ 211700Z 28032G65KT 1 1/4SM R24L/3500VP6000FT/D +TSRA OVC015CB 17/17 A2998 RMK RA4CB4 FREQ LTGIC PRESRR SLP152 DENSITY ALT 900FT
12:52
I
28 °C 3,2 km 4.100 ft 250°   250° 25 39 kt METAR CYYZ 211652Z 25025G39KT 2SM +TSRA BKN041CB OVC080 28/19 A2995 RMK CB6AC2 PRESRR SLP143 DENSITY ALT 2200FT
12:00
V
29 °C 24 km - 240°   240° 16 21 kt METAR CYYZ 211600Z 24016G21KT 15SM FEW055 FEW140 SCT240 29/19 A2986 RMK CU1AC1CI1 SLP110 DENSITY ALT 2500FT
11:00
V
28 °C 24 km - 230°   230° 17 25 kt METAR CYYZ 211500Z 23017G25KT 15SM FEW060 SCT240 28/20 A2985 RMK CU1CI3 SLP108 DENSITY ALT 2300FT
10:00
V
26 °C 24 km 24.000 ft 230°   230° 15 kt METAR CYYZ 211400Z 23015KT 15SM SCT150 BKN240 26/19 A2983 RMK AC3CI2 SLP100 DENSITY ALT 2100FT
09:00
V
24 °C 24 km 18.000 ft 240°   240° 11 kt METAR CYYZ 211300Z 24011KT 15SM FEW100 BKN180 BKN240 24/19 A2983 RMK AC2AC4CI1 SLP103 DENSITY ALT 1900FT
08:00
V
24 °C 24 km 18.000 ft 240°   240° 10 kt METAR CYYZ 211200Z 24010KT 15SM FEW090 BKN180 BKN240 24/19 A2983 RMK AC1AC5CI1 SLP100 DENSITY ALT 1900FT
07:00
V
23 °C 19 km 18.000 ft 240°   240° 9 kt METAR CYYZ 211100Z 24009KT 12SM FEW060 BKN180 BKN240 23/19 A2982 RMK CU1AC4CI1 SLP098 DENSITY ALT 1800FT
06:00
V
23 °C 24 km 23.000 ft 220°   220° 11 16 kt METAR CYYZ 211000Z 22011G16KT 15SM FEW065 SCT160 BKN230 23/18 A2978 RMK SC1AC2CI3 SLP085 DENSITY ALT 1800FT
05:00
V
23 °C 24 km - 220°   220° 10 16 kt METAR CYYZ 210900Z 22010G16KT 15SM FEW065 FEW120 SCT210 23/18 A2976 RMK SC1AC1CI2 SLP076 DENSITY ALT 1800FT
04:00
V
22 °C 24 km 6.500 ft 220°   220° 9 kt METAR CYYZ 210800Z 22009KT 15SM BKN065 BKN210 22/18 A2973 RMK SC5CI2 SLP068 DENSITY ALT 1800FT
03:00
V
23 °C 24 km - 220°   220° 13 kt METAR CYYZ 210700Z 22013KT 15SM FEW070 SCT210 23/18 A2971 RMK AS1CI3 SLP060 DENSITY ALT 1900FT
02:00
V
22 °C 24 km 25.000 ft 210°   210° 8 kt METAR CYYZ 210600Z 21008KT 15SM BKN250 22/19 A2969 RMK CI6 SLP055 DENSITY ALT 1800FT
01:00
V
19 °C 24 km 23.000 ft 160°   160° 2 kt METAR CYYZ 210500Z 16002KT 15SM FEW180 BKN230 19/19 A2970 RMK AS2CI5 SLP059 DENSITY ALT 1500FT
00:00
V
19 °C 24 km 20.000 ft 150°   150° 3 kt METAR CYYZ 210400Z 15003KT 15SM SCT160 OVC200 19/19 A2971 RMK AS3CI5 SLP060 DENSITY ALT 1400FT

20 de maio de 2022

Tempo Código Clima Temp. Visão Nuvens Vento METAR/SPECI
23:00
V
20 °C 24 km 18.000 ft 150°   150° 7 kt METAR CYYZ 210300Z 15007KT 15SM FEW060 BKN180 20/19 A2968 RMK SC2AS5 SLP053 DENSITY ALT 1600FT
22:00
V
21 °C 24 km 6.000 ft 140°   140° 6 kt METAR CYYZ 210200Z 14006KT 15SM SCT042 BKN060 21/19 A2968 RMK SC3SC4 SLP053 DENSITY ALT 1700FT
21:00
V
22 °C 24 km 4.000 ft 130°   130° 6 kt METAR CYYZ 210100Z 13006KT 15SM BKN040 OVC120 22/18 A2968 RMK SC7AC1 SLP050 DENSITY ALT 1800FT
20:00
V
22 °C 24 km 4.400 ft 150°   150° 6 kt METAR CYYZ 210000Z 15006KT 15SM SCT035 BKN044 OVC140 22/18 A2965 RMK SC3SC4AC1 SLP041 DENSITY ALT 1900FT
19:00
V
22 °C 24 km 3.500 ft 160°   160° 8 kt METAR CYYZ 202300Z 16008KT 15SM SCT025 BKN035 OVC160 22/18 A2963 RMK SC3SC4AC1 SLP034 DENSITY ALT 1900FT
18:00
V
23 °C 24 km 23.000 ft 160°   160° 11 kt METAR CYYZ 202200Z 16011KT 15SM SCT035 BKN230 23/18 A2960 RMK CU3CI4 SLP025 DENSITY ALT 2000FT
17:34
V
23 °C 24 km 3.000 ft 140°   140° 10 kt METAR CYYZ 202134Z 14010KT 130V210 15SM BKN030 BKN230 23/18 A2961 RMK CU5CI2 WSHFT 2125 PRESFR SLP029 DENSITY ALT 2000FT
17:00
V
23 °C 24 km 3.100 ft 210°   210° 11 24 kt METAR CYYZ 202100Z 21011G24KT 15SM BKN031 OVC220 23/18 A2963 RMK SC7CI1 SLP036 DENSITY ALT 2000FT
16:00
V
23 °C 24 km 23.000 ft 180°   180° 12 19 kt METAR CYYZ 202000Z 18012G19KT 15SM SCT042 BKN230 23/17 A2963 RMK SC4CI2 SLP034 DENSITY ALT 2100FT
15:00
V
23 °C 24 km 22.000 ft 180°   180° 16 21 kt METAR CYYZ 201900Z 18016G21KT 15SM SCT045 BKN220 23/16 A2965 RMK SC3CI3 SLP040 DENSITY ALT 2000FT
14:00
V
24 °C 24 km 5.000 ft 190°   190° 12 kt METAR CYYZ 201800Z 19012KT 140V210 15SM BKN050 BKN230 24/16 A2964 RMK SC5CI2 SLP038 DENSITY ALT 2100FT
13:00
V
20 °C 24 km 18.000 ft 160°   160° 10 16 kt METAR CYYZ 201700Z 16010G16KT 15SM FEW030 BKN180 BKN260 20/15 A2965 RMK CU1AC2CI3 SLP042 DENSITY ALT 1700FT
12:00
V
20 °C 24 km 24.000 ft 170°   170° 9 kt METAR CYYZ 201600Z 17009KT 15SM BKN240 20/15 A2963 RMK CI5 SLP035 DENSITY ALT 1700FT
11:00
V
16 °C 24 km 26.000 ft 170°   170° 5 kt METAR CYYZ 201500Z 17005KT 110V190 15SM SCT100 BKN260 16/14 A2967 RMK AC3CI3 SLP048 DENSITY ALT 1200FT
Dados mais antigos

Baixe nosso aplicativo

Fácil acesso a todas as condições meteorológicas da aviação no seu celular e no seu tablet.
Com muitos recursos não disponíveis no site, como suporte offline e uma lista pessoal de aeroportos.

Nós e terceiros acompanhamos seu comportamento na internet em nosso site com cookies. Se você continuar, nós assumimos que você concorda com nossa política de cookies. Saiba mais